DELTA 1 DEB, 12536

Orbit data source: Space-Track

DELTA 1 DEB, 12536 is space debris in LEO originally from a launch on Thu, 29 Jul 1976 UTC launched from the Air Force Western Test Range (AFWTR). Debris objects in space refer to the collection of defunct objects orbiting the Earth. Examples of debris include non-operational satellites, rocket bodies, and fragments generated from explosions, collisions, or faulty payload assembly.

Loading next visibility...
Identifier
12536, 1976-077DR
Orbit
LEO
Country
Flag of USUS
Related business
Manufacturer
Unknown
Mission
Spacecraft
Bus & Motor
Unknown
Mass
Unknown
Launch date (UTC)
1976-07-29 (50 years ago)
Launch vehicle
Unknown
Launch site
Air Force Western Test Range (AFWTR)
Object type
Payload
Rocket body
Debris
Shape & HBR
Unknown shape, 0.1 m
Radar Cross Section
Medium (>0.1 m² and <1 m²)

Expand to show TLE details & history
Last TLE update: 21 hours ago

TLE from 21 hours ago
0 DELTA 1 DEB
1 12536U 76077DR  26255.15477079 -.00002908  00000-0 -31545-1 0  9994
2 12536 101.7686 335.3482 0519597  68.2595 325.1569 11.80140501 64133
Epoch: 2026-09-12T03:42Z
TLE epoch observation values (Epoch: 2026-09-12T03:42:52.196Z)
Latitude
29.18506°
Longitude
-78.18616°
Altitude
1,434.376 km
Speed
7.294 km/s
True Right ascension
21h 54m 47s
True Declination
29° 03' 06"
Sunlit
Object was in full shadow at epoch
Visualization orbit readout
Latitude
Unknown
Longitude
Unknown
Altitude
Unknown
Speed
Unknown
Apparent Right ascension
Unknown
Apparent Declination
Unknown
Sunlit
N/A
Visualization observer readout
Local Sidereal Time
17:33:57
Azimuth
Unknown
Elevation
Unknown
Doppler factor
Unknown
Orbital elements
Apogee altitude
2,191.956 km
Perigee altitude
1,345.347 km
Semi-major axis
8,146.788 km
Eccentricity
0.05196
Inclination
101.7686°
RAAN
335.3482°
Arg. of periapsis
68.2595°
True anomaly
321.5664°
Mean anomaly
325.1569°
Eccentric anomaly
323.38111°
Mean motion
2.95164 °/min
Orbital period
121.97 mins
BSTAR
-0.031545
Loading maneuver chart data...
Computing Atmospheric mass density...
Loading historical data...
Loading historical data...
Loading historical data...
Loading historical data...
Loading historical data...
Loading historical data...
Loading historical data...

Documentation

Showing up to 5 results
|